Dallas/Ft Worth, TX

3:37 PM CST on November 18, 2019 (GMT -0600)
Dallas-Fort Worth International

Weather History for KDFW - September, 2019

Change the Weather History Date:

Tuesday, September 24, 2019

  Actual Average Record
Temperature  
Mean Temperature 86 °F 75 °F  
Max Temperature 95 °F 85 °F 99 °F (1907)
Min Temperature 77 °F 64 °F 49 °F (1989)
Degree Days  
Heating Degree Days 0 0  
Month to date heating degree days 0 0  
Since 1 July heating degree days 0 0  
Cooling Degree Days 21 10  
Month to date cooling degree days 497 340  
Year to date cooling degree days 2699 2522  
Growing Degree Days 36 (Base 50)    
Moisture  
Dew Point 70 °F    
Average Humidity 60    
Maximum Humidity 85    
Minimum Humidity 38    
Precipitation  
Precipitation 0.00 in 0.09 in 1.45 in (1968)
Month to date precipitation T 2.09  
Year to date precipitation 27.13 26.20  
Sea Level Pressure  
Sea Level Pressure 29.86 in    
Wind  
Wind Speed 10 mph ()    
Max Wind Speed 20 mph    
Max Gust Speed 23 mph    
Visibility 10.0 miles    
Events      
T = Trace of Precipitation, MM = Missing Value Source: Averaged Metar Reports

Daily Weather History Graph

Daily Weather History Graph

Search for Another Location

Airport or City:

Astronomy

Sep. 24, 2019 Rise Set
Actual Time 7:17 AM CDT 7:22 PM CDT
Civil Twilight 6:52 AM CDT 7:46 PM CDT
Nautical Twilight 6:24 AM CDT 8:15 PM CDT
Astronomical Twilight 5:55 AM CDT 8:44 PM CDT
Moon 2:23 AM CDT (9/24) 4:51 PM CDT (9/24)
Length of Visible Light 12h 54m
Length of Day
12h 04m
Waning Crescent, 23% of the Moon is Illuminated
Sep 24
Waning Crescent
Sep 28
New
Oct 5
First Quarter
Oct 13
Full
Oct 21
Last Quarter

Hourly Weather History & Observations

Time (CDT) Temp. Heat Index Dew Point Humidity Pressure Visibility Wind Dir Wind Speed Gust Speed Precip Events Conditions
12:53 AM 82.0 °F 86.3 °F 71.1 °F 69% 29.91 in 10.0 mi SSE 9.2 mph - N/A   Partly Cloudy
1:53 AM 81.0 °F 84.9 °F 71.1 °F 72% 29.91 in 10.0 mi South 11.5 mph - N/A   Partly Cloudy
2:53 AM 80.1 °F 83.6 °F 71.1 °F 74% 29.90 in 10.0 mi South 10.4 mph - N/A   Scattered Clouds
3:53 AM 79.0 °F - 71.1 °F 77% 29.90 in 10.0 mi South 8.1 mph - N/A   Scattered Clouds
4:53 AM 78.1 °F - 72.0 °F 81% 29.89 in 10.0 mi South 8.1 mph - N/A   Scattered Clouds
5:53 AM 78.1 °F - 72.0 °F 81% 29.91 in 10.0 mi South 8.1 mph - N/A   Mostly Cloudy
6:53 AM 77.0 °F - 72.0 °F 84% 29.92 in 10.0 mi South 8.1 mph - N/A   Mostly Cloudy
7:53 AM 78.1 °F - 73.0 °F 84% 29.92 in 10.0 mi South 10.4 mph - N/A   Mostly Cloudy
8:53 AM 80.1 °F 84.2 °F 73.0 °F 79% 29.93 in 10.0 mi South 15.0 mph - N/A   Mostly Cloudy
9:53 AM 82.9 °F 88.0 °F 72.0 °F 69% 29.93 in 10.0 mi SSW 12.7 mph - N/A   Mostly Cloudy
10:53 AM 84.9 °F 90.7 °F 72.0 °F 65% 29.93 in 10.0 mi South 12.7 mph - N/A   Mostly Cloudy
11:53 AM 88.0 °F 94.7 °F 72.0 °F 59% 29.91 in 10.0 mi SSE 9.2 mph - N/A   Scattered Clouds
12:53 PM 91.0 °F 97.6 °F 71.1 °F 52% 29.89 in 10.0 mi SSW 8.1 mph 18.4 mph N/A   Mostly Cloudy
1:53 PM 91.0 °F 97.6 °F 71.1 °F 52% 29.85 in 10.0 mi South 11.5 mph - N/A   Mostly Cloudy
2:53 PM 93.0 °F 97.9 °F 69.1 °F 45% 29.81 in 10.0 mi SSE 13.8 mph - N/A   Mostly Cloudy
3:53 PM 91.9 °F 95.9 °F 68.0 °F 45% 29.79 in 10.0 mi SSE 12.7 mph - N/A   Mostly Cloudy
4:53 PM 93.9 °F 97.5 °F 66.9 °F 41% 29.77 in 10.0 mi SSE 13.8 mph - N/A   Mostly Cloudy
5:34 PM 93.9 °F 97.0 °F 66.0 °F 40% 29.80 in 10.0 mi South 11.5 mph - N/A   Mostly Cloudy
5:53 PM 93.9 °F 96.1 °F 64.9 °F 38% 29.77 in 10.0 mi SE 12.7 mph - N/A   Mostly Cloudy
6:53 PM 91.9 °F 94.1 °F 64.9 °F 41% 29.77 in 10.0 mi SSE 12.7 mph - N/A   Mostly Cloudy
7:53 PM 90.0 °F 93.6 °F 68.0 °F 48% 29.77 in 10.0 mi SE 13.8 mph - N/A   Mostly Cloudy
8:53 PM 88.0 °F 91.4 °F 68.0 °F 51% 29.79 in 10.0 mi SSE 11.5 mph - N/A   Partly Cloudy
9:53 PM 86.0 °F 89.4 °F 68.0 °F 55% 29.80 in 10.0 mi SSE 11.5 mph - N/A   Scattered Clouds
10:53 PM 86.0 °F 89.4 °F 68.0 °F 55% 29.81 in 10.0 mi SSE 12.7 mph - N/A   Mostly Cloudy
11:53 PM 84.9 °F 87.6 °F 66.9 °F 55% 29.81 in 10.0 mi South 15.0 mph - N/A   Mostly Cloudy